| time (UTC) | temp F | wind direction | speed MPH | gust MPH | rain 1hr in | rain 24hr in | rain mn in | humidity % | barometer mb |
| 20260510004533 | 68 | 45 | 1.0 | 4.0 | 0.00 | 0.00 | 0.00 | 64 | 1028.3 |
| 20260510004031 | 68 | 119 | 1.0 | 4.0 | 0.00 | 0.00 | 0.00 | 65 | 1028.2 |
| 20260510003530 | 67 | 163 | 0.0 | 7.0 | 0.00 | 0.00 | 0.00 | 67 | 1028.3 |
| 20260510003030 | 67 | 182 | 1.0 | 7.0 | 0.00 | 0.00 | 0.00 | 67 | 1028.3 |
| 20260510002528 | 67 | 126 | 2.0 | 7.0 | 0.00 | 0.00 | 0.00 | 67 | 1028.3 |
| 20260510002027 | 66 | 177 | 3.0 | 5.0 | 0.00 | 0.00 | 0.00 | 68 | 1028.3 |
| 20260510001525 | 66 | 171 | 0.0 | 5.0 | 0.00 | 0.00 | 0.00 | 70 | 1028.3 |
| 20260510001024 | 66 | 140 | 1.0 | 5.0 | 0.00 | 0.00 | 0.00 | 71 | 1028.2 |
| 20260510000523 | 65 | 171 | 1.0 | 5.0 | 0.00 | 0.00 | 0.00 | 72 | 1028.2 |
| 20260510000022 | 65 | 204 | 1.0 | 4.0 | 0.00 | 0.00 | 0.00 | 73 | 1028.2 |
| 20260509235520 | 64 | 227 | 0.0 | 4.0 | 0.00 | 0.00 | 0.00 | 74 | 1028.1 |
| 20260509235019 | 64 | 247 | 1.0 | 4.0 | 0.00 | 0.00 | 0.00 | 75 | 1028.1 |
| 20260509234518 | 64 | 234 | 1.0 | 4.0 | 0.00 | 0.00 | 0.00 | 75 | 1028.1 |
| 20260509234017 | 63 | 258 | 2.0 | 4.0 | 0.00 | 0.00 | 0.00 | 75 | 1028.0 |
| 20260509233515 | 63 | 171 | 1.0 | 4.0 | 0.00 | 0.00 | 0.00 | 75 | 1028.0 |
| 20260509233019 | 63 | 231 | 2.0 | 4.0 | 0.00 | 0.00 | 0.00 | 76 | 1027.9 |
| 20260509232514 | 63 | 209 | 2.0 | 4.0 | 0.00 | 0.00 | 0.00 | 77 | 1027.9 |
| 20260509232011 | 63 | 212 | 1.0 | 4.0 | 0.00 | 0.00 | 0.00 | 78 | 1027.9 |
| 20260509231512 | 63 | 205 | 2.0 | 4.0 | 0.00 | 0.00 | 0.00 | 77 | 1027.9 |
| 20260509231010 | 63 | 211 | 2.0 | 4.0 | 0.00 | 0.00 | 0.00 | 78 | 1027.9 |
| 20260509230510 | 62 | 215 | 0.0 | 3.0 | 0.00 | 0.00 | 0.00 | 78 | 1027.9 |
| 20260509230009 | 62 | 186 | 1.0 | 3.0 | 0.00 | 0.00 | 0.00 | 78 | 1027.9 |
| 20260509225507 | 62 | 220 | 1.0 | 3.0 | 0.00 | 0.00 | 0.00 | 78 | 1027.8 |
| 20260509225006 | 61 | 179 | 0.0 | 3.0 | 0.00 | 0.00 | 0.00 | 79 | 1027.7 |
| 20260509224504 | 61 | 266 | 0.0 | 1.0 | 0.00 | 0.00 | 0.00 | 80 | 1027.8 |
| 20260509224004 | 61 | 266 | 0.0 | 1.0 | 0.00 | 0.00 | 0.00 | 81 | 1027.7 |
| 20260509223503 | 60 | 267 | 0.0 | 1.0 | 0.00 | 0.00 | 0.00 | 80 | 1027.7 |
| 20260509223002 | 60 | 267 | 0.0 | 2.0 | 0.00 | 0.00 | 0.00 | 81 | 1027.8 |
| 20260509222500 | 60 | 272 | 0.0 | 3.0 | 0.00 | 0.00 | 0.00 | 82 | 1027.7 |
| 20260509222059 | 59 | 272 | 1.0 | 3.0 | 0.00 | 0.00 | 0.00 | 82 | 1027.7 |
| 20260509221621 | 59 | 283 | 0.0 | 3.0 | 0.00 | 0.00 | 0.00 | 83 | 1027.7 |
| 20260509221057 | 58 | 292 | 1.0 | 3.0 | 0.00 | 0.00 | 0.00 | 84 | 1027.6 |
| 20260509220557 | 58 | 292 | 1.0 | 3.0 | 0.00 | 0.00 | 0.00 | 84 | 1027.7 |
| 20260509220055 | 58 | 292 | 1.0 | 3.0 | 0.00 | 0.00 | 0.00 | 84 | 1027.6 |
| 20260509215555 | 58 | 294 | 1.0 | 3.0 | 0.00 | 0.00 | 0.00 | 84 | 1027.6 |
| 20260509215055 | 58 | 294 | 1.0 | 3.0 | 0.00 | 0.00 | 0.00 | 84 | 1027.5 |
| 20260509214601 | 58 | 289 | 1.0 | 3.0 | 0.00 | 0.00 | 0.00 | 84 | 1027.4 |
| 20260509214051 | 57 | 289 | 1.0 | 2.0 | 0.00 | 0.00 | 0.00 | 85 | 1027.4 |
| 20260509213551 | 57 | 289 | 1.0 | 2.0 | 0.00 | 0.00 | 0.00 | 85 | 1027.3 |
| 20260509213050 | 57 | 289 | 1.0 | 2.0 | 0.00 | 0.00 | 0.00 | 85 | 1027.3 |
| 20260509212549 | 57 | 289 | 1.0 | 2.0 | 0.00 | 0.00 | 0.00 | 85 | 1027.3 |
| 20260509212049 | 57 | 289 | 0.0 | 3.0 | 0.00 | 0.00 | 0.00 | 86 | 1027.1 |
| 20260509211550 | 57 | 289 | 1.0 | 3.0 | 0.00 | 0.00 | 0.00 | 86 | 1027.1 |
| 20260509211048 | 56 | 289 | 1.0 | 3.0 | 0.00 | 0.00 | 0.00 | 86 | 1027.0 |
| 20260509210548 | 56 | 289 | 1.0 | 3.0 | 0.00 | 0.00 | 0.00 | 86 | 1027.0 |
| 20260509210049 | 56 | 286 | 1.0 | 3.0 | 0.00 | 0.00 | 0.00 | 86 | 1027.0 |
| 20260509205548 | 56 | 286 | 1.0 | 3.0 | 0.00 | 0.00 | 0.00 | 86 | 1026.9 |
| 20260509205046 | 56 | 285 | 1.0 | 3.0 | 0.00 | 0.00 | 0.00 | 86 | 1026.9 |
| 20260509204545 | 56 | 285 | 1.0 | 3.0 | 0.00 | 0.00 | 0.00 | 87 | 1026.8 |
| 20260509204045 | 56 | 285 | 2.0 | 3.0 | 0.00 | 0.00 | 0.00 | 87 | 1026.8 |
| 20260509203543 | 56 | 285 | 1.0 | 3.0 | 0.00 | 0.00 | 0.00 | 88 | 1026.7 |
| 20260509203044 | 56 | 285 | 0.0 | 2.0 | 0.00 | 0.00 | 0.00 | 88 | 1026.6 |
| 20260509202542 | 55 | 285 | 0.0 | 2.0 | 0.00 | 0.00 | 0.00 | 88 | 1026.6 |
| 20260509202042 | 55 | 285 | 0.0 | 2.0 | 0.00 | 0.00 | 0.00 | 89 | 1026.5 |
| 20260509201543 | 55 | 285 | 1.0 | 2.0 | 0.00 | 0.00 | 0.00 | 89 | 1026.5 |
| 20260509201041 | 55 | 285 | 0.0 | 2.0 | 0.00 | 0.00 | 0.00 | 89 | 1026.4 |
| 20260509200541 | 55 | 285 | 0.0 | 2.0 | 0.00 | 0.00 | 0.00 | 89 | 1026.4 |
| 20260509200047 | 55 | 285 | 0.0 | 3.0 | 0.00 | 0.00 | 0.00 | 89 | 1026.3 |
| 20260509195540 | 55 | 285 | 1.0 | 3.0 | 0.00 | 0.00 | 0.00 | 90 | 1026.3 |
| 20260509195038 | 55 | 296 | 0.0 | 2.0 | 0.00 | 0.00 | 0.00 | 90 | 1026.2 |
| 20260509194548 | 55 | 296 | 0.0 | 2.0 | 0.00 | 0.00 | 0.00 | 90 | 1026.2 |
| 20260509194040 | 55 | 296 | 0.0 | 0.0 | 0.00 | 0.00 | 0.00 | 89 | 1026.1 |
| 20260509193537 | 55 | 296 | 0.0 | 2.0 | 0.00 | 0.00 | 0.00 | 89 | 1026.1 |
| 20260509193039 | 55 | 296 | 0.0 | 3.0 | 0.00 | 0.00 | 0.00 | 89 | 1026.0 |
| 20260509192539 | 56 | 296 | 1.0 | 3.0 | 0.00 | 0.00 | 0.00 | 88 | 1025.9 |
| 20260509192036 | 56 | 296 | 1.0 | 3.0 | 0.00 | 0.00 | 0.00 | 88 | 1025.9 |
| 20260509191537 | 56 | 296 | 0.0 | 3.0 | 0.00 | 0.00 | 0.00 | 88 | 1025.8 |
| 20260509191036 | 56 | 168 | 1.0 | 4.0 | 0.00 | 0.00 | 0.00 | 88 | 1025.7 |
| 20260509190536 | 56 | 132 | 2.0 | 4.0 | 0.00 | 0.00 | 0.00 | 89 | 1025.7 |
| 20260509190134 | 56 | 130 | 0.0 | 2.0 | 0.00 | 0.00 | 0.00 | 89 | 1025.7 |
| 20260509185535 | 56 | 139 | 0.0 | 3.0 | 0.00 | 0.00 | 0.00 | 89 | 1025.7 |
| 20260509185033 | 56 | 102 | 1.0 | 3.0 | 0.00 | 0.00 | 0.00 | 89 | 1025.6 |
| 20260509184536 | 56 | 136 | 0.0 | 3.0 | 0.00 | 0.00 | 0.00 | 89 | 1025.6 |
| 20260509184033 | 56 | 134 | 1.0 | 3.0 | 0.00 | 0.00 | 0.00 | 89 | 1025.6 |
| 20260509183531 | 56 | 156 | 0.0 | 2.0 | 0.00 | 0.00 | 0.00 | 89 | 1025.5 |
| 20260509183043 | 56 | 198 | 0.0 | 2.0 | 0.00 | 0.00 | 0.00 | 89 | 1025.5 |
| 20260509182531 | 56 | 198 | 0.0 | 2.0 | 0.00 | 0.00 | 0.00 | 89 | 1025.4 |
| 20260509182030 | 56 | 198 | 0.0 | 2.0 | 0.00 | 0.00 | 0.00 | 89 | 1025.4 |
| 20260509181530 | 56 | 198 | 0.0 | 2.0 | 0.00 | 0.00 | 0.00 | 89 | 1025.3 |
| 20260509181029 | 56 | 198 | 0.0 | 2.0 | 0.00 | 0.00 | 0.00 | 89 | 1025.3 |
| 20260509180529 | 56 | 202 | 0.0 | 3.0 | 0.00 | 0.00 | 0.00 | 89 | 1025.3 |
| 20260509180028 | 56 | 200 | 0.0 | 3.0 | 0.00 | 0.00 | 0.00 | 89 | 1025.3 |
| 20260509175528 | 56 | 151 | 0.0 | 3.0 | 0.00 | 0.00 | 0.00 | 89 | 1025.2 |
| 20260509175027 | 56 | 232 | 0.0 | 3.0 | 0.00 | 0.00 | 0.00 | 89 | 1025.2 |
| 20260509174541 | 56 | 307 | 0.0 | 3.0 | 0.00 | 0.00 | 0.00 | 89 | 1025.1 |
| 20260509174027 | 56 | 175 | 0.0 | 3.0 | 0.00 | 0.00 | 0.00 | 89 | 1025.1 |
| 20260509173526 | 56 | 144 | 1.0 | 3.0 | 0.00 | 0.00 | 0.00 | 89 | 1025.1 |
| 20260509173026 | 56 | 209 | 0.0 | 4.0 | 0.00 | 0.00 | 0.00 | 90 | 1025.1 |
| 20260509172526 | 56 | 186 | 0.0 | 4.0 | 0.00 | 0.00 | 0.00 | 90 | 1025.0 |
| 20260509172025 | 56 | 205 | 0.0 | 3.0 | 0.00 | 0.00 | 0.00 | 90 | 1025.0 |
| 20260509171537 | 56 | 205 | 0.0 | 3.0 | 0.00 | 0.00 | 0.00 | 90 | 1025.1 |
| 20260509171026 | 56 | 182 | 0.0 | 3.0 | 0.00 | 0.00 | 0.00 | 89 | 1025.1 |
| 20260509170526 | 56 | 225 | 0.0 | 1.0 | 0.00 | 0.00 | 0.00 | 89 | 1025.0 |
| 20260509170030 | 56 | 225 | 0.0 | 2.0 | 0.00 | 0.00 | 0.00 | 89 | 1025.1 |
| 20260509165526 | 56 | 225 | 0.0 | 2.0 | 0.00 | 0.00 | 0.00 | 89 | 1025.0 |
| 20260509165024 | 56 | 225 | 0.0 | 1.0 | 0.00 | 0.00 | 0.00 | 88 | 1025.0 |
| 20260509164524 | 56 | 225 | 0.0 | 1.0 | 0.00 | 0.00 | 0.00 | 88 | 1025.0 |
| 20260509164023 | 56 | 225 | 0.0 | 1.0 | 0.00 | 0.00 | 0.00 | 88 | 1025.0 |
| 20260509163528 | 56 | 225 | 0.0 | 1.0 | 0.00 | 0.00 | 0.00 | 88 | 1025.0 |
| 20260509163035 | 56 | 225 | 0.0 | 0.0 | 0.00 | 0.00 | 0.00 | 87 | 1025.0 |
| 20260509162527 | 56 | 225 | 0.0 | 0.0 | 0.00 | 0.00 | 0.00 | 88 | 1025.1 |
| 20260509162024 | 56 | 225 | 0.0 | 0.0 | 0.00 | 0.00 | 0.00 | 88 | 1025.1 |
| 20260509161529 | 56 | 225 | 0.0 | 0.0 | 0.00 | 0.00 | 0.00 | 88 | 1025.1 |
| 20260509161024 | 56 | 225 | 0.0 | 0.0 | 0.00 | 0.00 | 0.00 | 88 | 1025.1 |
| 20260509160525 | 56 | 225 | 0.0 | 0.0 | 0.00 | 0.00 | 0.00 | 88 | 1025.1 |
| 20260509160025 | 56 | 225 | 0.0 | 0.0 | 0.00 | 0.00 | 0.00 | 88 | 1025.1 |
| 20260509155521 | 56 | 225 | 0.0 | 0.0 | 0.00 | 0.00 | 0.00 | 87 | 1025.1 |
| 20260509155019 | 56 | 225 | 0.0 | 2.0 | 0.00 | 0.00 | 0.00 | 87 | 1025.1 |
| 20260509154520 | 56 | 225 | 0.0 | 2.0 | 0.00 | 0.00 | 0.00 | 87 | 1025.1 |
| 20260509154020 | 56 | 225 | 0.0 | 2.0 | 0.00 | 0.00 | 0.00 | 87 | 1025.1 |
| 20260509153519 | 57 | 225 | 0.0 | 1.0 | 0.00 | 0.00 | 0.00 | 87 | 1025.1 |
| 20260509153033 | 57 | 225 | 0.0 | 1.0 | 0.00 | 0.00 | 0.00 | 87 | 1025.1 |
| 20260509152519 | 57 | 225 | 0.0 | 1.0 | 0.00 | 0.00 | 0.00 | 87 | 1025.1 |
| 20260509152019 | 57 | 225 | 0.0 | 1.0 | 0.00 | 0.00 | 0.00 | 86 | 1025.1 |
| 20260509151519 | 57 | 225 | 0.0 | 1.0 | 0.00 | 0.00 | 0.00 | 86 | 1025.1 |
| 20260509151021 | 57 | 225 | 0.0 | 2.0 | 0.00 | 0.00 | 0.00 | 87 | 1025.1 |
| 20260509150523 | 57 | 225 | 0.0 | 2.0 | 0.00 | 0.00 | 0.00 | 87 | 1025.1 |
| 20260509150027 | 57 | 225 | 0.0 | 1.0 | 0.00 | 0.00 | 0.00 | 87 | 1025.1 |
| 20260509145520 | 56 | 225 | 0.0 | 1.0 | 0.00 | 0.00 | 0.00 | 86 | 1025.1 |
| 20260509145018 | 57 | 225 | 0.0 | 2.0 | 0.00 | 0.00 | 0.00 | 86 | 1025.1 |
| 20260509144517 | 57 | 225 | 0.0 | 2.0 | 0.00 | 0.00 | 0.00 | 86 | 1025.1 |
| 20260509144016 | 57 | 225 | 0.0 | 2.0 | 0.00 | 0.00 | 0.00 | 86 | 1025.1 |
| 20260509143516 | 57 | 225 | 0.0 | 2.0 | 0.00 | 0.00 | 0.00 | 85 | 1025.1 |
| 20260509143015 | 57 | 225 | 1.0 | 2.0 | 0.00 | 0.00 | 0.00 | 85 | 1025.1 |
| 20260509142514 | 57 | 225 | 0.0 | 2.0 | 0.00 | 0.00 | 0.00 | 85 | 1025.2 |
| 20260509142014 | 57 | 225 | 0.0 | 2.0 | 0.00 | 0.00 | 0.00 | 85 | 1025.1 |
| 20260509141514 | 57 | 225 | 0.0 | 2.0 | 0.00 | 0.00 | 0.00 | 85 | 1025.1 |
| 20260509141013 | 57 | 225 | 0.0 | 2.0 | 0.00 | 0.00 | 0.00 | 85 | 1025.1 |
| 20260509140512 | 57 | 225 | 1.0 | 2.0 | 0.00 | 0.00 | 0.00 | 85 | 1025.0 |
| 20260509140011 | 57 | 225 | 0.0 | 0.0 | 0.00 | 0.00 | 0.00 | 85 | 1025.0 |
| 20260509135511 | 57 | 225 | 0.0 | 0.0 | 0.00 | 0.00 | 0.00 | 85 | 1025.1 |
| 20260509135014 | 57 | 225 | 0.0 | 0.0 | 0.00 | 0.00 | 0.00 | 85 | 1025.1 |
| 20260509134510 | 57 | 225 | 0.0 | 1.0 | 0.00 | 0.00 | 0.00 | 85 | 1025.1 |
| 20260509134010 | 57 | 225 | 0.0 | 2.0 | 0.00 | 0.00 | 0.00 | 85 | 1025.2 |
| 20260509133510 | 57 | 225 | 0.0 | 2.0 | 0.00 | 0.00 | 0.00 | 86 | 1025.2 |
| 20260509133010 | 57 | 225 | 0.0 | 2.0 | 0.00 | 0.00 | 0.00 | 86 | 1025.2 |
| 20260509132510 | 57 | 225 | 0.0 | 1.0 | 0.00 | 0.00 | 0.00 | 86 | 1025.2 |
| 20260509132010 | 57 | 225 | 0.0 | 2.0 | 0.00 | 0.00 | 0.00 | 86 | 1025.2 |
| 20260509131509 | 57 | 225 | 0.0 | 2.0 | 0.00 | 0.00 | 0.00 | 87 | 1025.3 |
| 20260509131010 | 57 | 217 | 0.0 | 2.0 | 0.00 | 0.00 | 0.00 | 87 | 1025.3 |
| 20260509130509 | 57 | 217 | 0.0 | 1.0 | 0.00 | 0.00 | 0.00 | 88 | 1025.3 |
| 20260509130010 | 57 | 217 | 0.0 | 0.0 | 0.00 | 0.00 | 0.00 | 87 | 1025.2 |
| 20260509125516 | 56 | 217 | 0.0 | 0.0 | 0.00 | 0.00 | 0.00 | 87 | 1025.2 |
| 20260509125008 | 57 | 217 | 0.0 | 0.0 | 0.00 | 0.00 | 0.00 | 87 | 1025.3 |
| 20260509124508 | 57 | 217 | 0.0 | 0.0 | 0.00 | 0.00 | 0.00 | 87 | 1025.2 |
| 20260509124009 | 57 | 217 | 0.0 | 0.0 | 0.00 | 0.00 | 0.00 | 87 | 1025.3 |
| 20260509123509 | 57 | 217 | 0.0 | 0.0 | 0.00 | 0.00 | 0.00 | 87 | 1025.3 |
| 20260509123008 | 57 | 217 | 0.0 | 0.0 | 0.00 | 0.00 | 0.00 | 87 | 1025.3 |
| 20260509122507 | 57 | 217 | 0.0 | 0.0 | 0.00 | 0.00 | 0.00 | 86 | 1025.3 |
| 20260509122008 | 57 | 217 | 0.0 | 1.0 | 0.00 | 0.00 | 0.00 | 85 | 1025.3 |
| 20260509121509 | 58 | 217 | 0.0 | 1.0 | 0.00 | 0.00 | 0.00 | 85 | 1025.3 |
| 20260509121006 | 58 | 217 | 0.0 | 0.0 | 0.00 | 0.00 | 0.00 | 84 | 1025.4 |
| 20260509120506 | 58 | 217 | 0.0 | 1.0 | 0.00 | 0.00 | 0.00 | 84 | 1025.4 |
| 20260509120005 | 58 | 217 | 0.0 | 2.0 | 0.00 | 0.00 | 0.00 | 84 | 1025.4 |
| 20260509115505 | 58 | 217 | 0.0 | 1.0 | 0.00 | 0.00 | 0.00 | 84 | 1025.4 |
| 20260509115005 | 58 | 225 | 0.0 | 1.0 | 0.00 | 0.00 | 0.00 | 84 | 1025.4 |
| 20260509114509 | 58 | 225 | 0.0 | 1.0 | 0.00 | 0.00 | 0.00 | 84 | 1025.4 |
| 20260509114003 | 58 | 226 | 0.0 | 1.0 | 0.00 | 0.00 | 0.00 | 84 | 1025.4 |
| 20260509113504 | 58 | 226 | 0.0 | 1.0 | 0.00 | 0.00 | 0.00 | 84 | 1025.3 |
| 20260509113003 | 58 | 226 | 0.0 | 2.0 | 0.00 | 0.00 | 0.00 | 84 | 1025.4 |
| 20260509112503 | 58 | 226 | 0.0 | 2.0 | 0.00 | 0.00 | 0.00 | 84 | 1025.3 |
| 20260509112002 | 58 | 226 | 0.0 | 1.0 | 0.00 | 0.00 | 0.00 | 84 | 1025.3 |
| 20260509111502 | 58 | 226 | 0.0 | 2.0 | 0.00 | 0.00 | 0.00 | 84 | 1025.4 |
| 20260509111001 | 58 | 226 | 0.0 | 3.0 | 0.00 | 0.00 | 0.00 | 84 | 1025.4 |
| 20260509110601 | 58 | 226 | 0.0 | 3.0 | 0.00 | 0.00 | 0.00 | 84 | 1025.3 |
| 20260509110059 | 58 | 240 | 0.0 | 2.0 | 0.00 | 0.00 | 0.00 | 84 | 1025.2 |
| 20260509105559 | 58 | 244 | 0.0 | 0.0 | 0.00 | 0.00 | 0.00 | 84 | 1025.2 |
| 20260509105058 | 58 | 244 | 0.0 | 3.0 | 0.00 | 0.00 | 0.00 | 84 | 1025.2 |
| 20260509104558 | 59 | 244 | 0.0 | 3.0 | 0.00 | 0.00 | 0.00 | 84 | 1025.2 |
| 20260509104057 | 59 | 244 | 1.0 | 3.0 | 0.00 | 0.00 | 0.00 | 84 | 1025.2 |
| 20260509103558 | 59 | 208 | 1.0 | 2.0 | 0.00 | 0.00 | 0.00 | 84 | 1025.2 |
| 20260509103103 | 59 | 206 | 0.0 | 2.0 | 0.00 | 0.00 | 0.00 | 84 | 1025.2 |
| 20260509102556 | 59 | 206 | 0.0 | 2.0 | 0.00 | 0.00 | 0.00 | 84 | 1025.1 |
| 20260509102055 | 59 | 206 | 0.0 | 2.0 | 0.00 | 0.00 | 0.00 | 83 | 1025.1 |
| 20260509101554 | 59 | 206 | 1.0 | 2.0 | 0.00 | 0.00 | 0.00 | 83 | 1025.1 |
| 20260509101053 | 59 | 206 | 0.0 | 2.0 | 0.00 | 0.00 | 0.00 | 82 | 1025.0 |
| 20260509100552 | 59 | 206 | 0.0 | 2.0 | 0.00 | 0.00 | 0.00 | 82 | 1024.9 |
| 20260509100058 | 59 | 80 | 0.0 | 0.0 | 0.00 | 0.00 | 0.00 | 81 | 1024.9 |
| 20260509095551 | 59 | 80 | 0.0 | 0.0 | 0.00 | 0.00 | 0.00 | 80 | 1024.8 |
| 20260509095051 | 60 | 80 | 0.0 | 1.0 | 0.00 | 0.00 | 0.00 | 80 | 1024.8 |
| 20260509094550 | 60 | 80 | 0.0 | 1.0 | 0.00 | 0.00 | 0.00 | 79 | 1024.9 |
| 20260509094050 | 60 | 80 | 0.0 | 1.0 | 0.00 | 0.00 | 0.00 | 79 | 1024.9 |
| 20260509093549 | 60 | 80 | 0.0 | 1.0 | 0.00 | 0.00 | 0.00 | 79 | 1024.9 |
| 20260509093050 | 60 | 80 | 0.0 | 0.0 | 0.00 | 0.00 | 0.00 | 79 | 1024.9 |
| 20260509092552 | 60 | 80 | 0.0 | 1.0 | 0.00 | 0.00 | 0.00 | 78 | 1024.8 |
| 20260509092049 | 60 | 80 | 0.0 | 2.0 | 0.00 | 0.00 | 0.00 | 78 | 1024.8 |
| 20260509091548 | 60 | 80 | 0.0 | 2.0 | 0.00 | 0.00 | 0.00 | 78 | 1024.7 |
| 20260509091051 | 60 | 80 | 0.0 | 2.0 | 0.00 | 0.00 | 0.00 | 78 | 1024.6 |
| 20260509090548 | 60 | 80 | 0.0 | 0.0 | 0.00 | 0.00 | 0.00 | 78 | 1024.6 |
| 20260509090054 | 59 | 80 | 0.0 | 0.0 | 0.00 | 0.00 | 0.00 | 78 | 1024.6 |
| 20260509085547 | 59 | 80 | 0.0 | 2.0 | 0.00 | 0.00 | 0.00 | 78 | 1024.5 |
| 20260509085048 | 59 | 80 | 0.0 | 2.0 | 0.00 | 0.00 | 0.00 | 78 | 1024.5 |
| 20260509084548 | 59 | 80 | 0.0 | 1.0 | 0.00 | 0.00 | 0.00 | 78 | 1024.4 |
| 20260509084044 | 59 | 80 | 0.0 | 0.0 | 0.00 | 0.00 | 0.00 | 78 | 1024.3 |
| 20260509083543 | 59 | 80 | 0.0 | 0.0 | 0.00 | 0.00 | 0.00 | 77 | 1024.2 |
| 20260509083051 | 60 | 80 | 0.0 | 0.0 | 0.00 | 0.00 | 0.00 | 77 | 1024.2 |
| 20260509082543 | 60 | 80 | 0.0 | 0.0 | 0.00 | 0.00 | 0.00 | 76 | 1024.2 |
| 20260509082044 | 60 | 80 | 0.0 | 0.0 | 0.00 | 0.00 | 0.00 | 76 | 1024.1 |
| 20260509081544 | 60 | 80 | 0.0 | 0.0 | 0.00 | 0.00 | 0.00 | 76 | 1024.0 |
| 20260509081044 | 60 | 80 | 0.0 | 0.0 | 0.00 | 0.00 | 0.00 | 75 | 1024.0 |
| 20260509080543 | 61 | 80 | 0.0 | 1.0 | 0.00 | 0.00 | 0.00 | 75 | 1023.9 |
| 20260509080043 | 61 | 80 | 0.0 | 1.0 | 0.00 | 0.00 | 0.00 | 75 | 1023.9 |
| 20260509075545 | 61 | 80 | 0.0 | 1.0 | 0.00 | 0.00 | 0.00 | 75 | 1023.8 |
| 20260509075043 | 61 | 80 | 0.0 | 2.0 | 0.00 | 0.00 | 0.00 | 74 | 1023.7 |
| 20260509074546 | 61 | 74 | 0.0 | 2.0 | 0.00 | 0.00 | 0.00 | 74 | 1023.7 |
| 20260509074042 | 61 | 115 | 0.0 | 1.0 | 0.00 | 0.00 | 0.00 | 74 | 1023.6 |
| 20260509073542 | 62 | 115 | 0.0 | 2.0 | 0.00 | 0.00 | 0.00 | 74 | 1023.6 |
| 20260509073043 | 62 | 115 | 0.0 | 3.0 | 0.00 | 0.00 | 0.00 | 73 | 1023.5 |
| 20260509072544 | 62 | 65 | 0.0 | 2.0 | 0.00 | 0.00 | 0.00 | 73 | 1023.4 |
| 20260509072045 | 62 | 65 | 0.0 | 2.0 | 0.00 | 0.00 | 0.00 | 72 | 1023.4 |
| 20260509071544 | 63 | 65 | 0.0 | 4.0 | 0.00 | 0.00 | 0.00 | 72 | 1023.4 |
| 20260509071041 | 63 | 65 | 1.0 | 4.0 | 0.00 | 0.00 | 0.00 | 71 | 1023.3 |
| 20260509070542 | 63 | 68 | 1.0 | 5.0 | 0.00 | 0.00 | 0.00 | 71 | 1023.2 |
| 20260509070044 | 63 | 71 | 0.0 | 5.0 | 0.00 | 0.00 | 0.00 | 70 | 1023.1 |
| 20260509065541 | 64 | 71 | 0.0 | 3.0 | 0.00 | 0.00 | 0.00 | 70 | 1023.1 |
| 20260509065041 | 64 | 74 | 0.0 | 4.0 | 0.00 | 0.00 | 0.00 | 69 | 1023.0 |
| 20260509064541 | 64 | 94 | 1.0 | 4.0 | 0.00 | 0.00 | 0.00 | 68 | 1023.0 |
| 20260509064044 | 65 | 105 | 1.0 | 3.0 | 0.00 | 0.00 | 0.00 | 68 | 1022.9 |
| 20260509063540 | 65 | 60 | 1.0 | 8.0 | 0.00 | 0.00 | 0.00 | 67 | 1022.9 |
| 20260509063040 | 65 | 104 | 1.0 | 8.0 | 0.00 | 0.00 | 0.00 | 67 | 1022.9 |
| 20260509062540 | 65 | 63 | 1.0 | 7.0 | 0.00 | 0.00 | 0.00 | 67 | 1022.8 |
| 20260509062039 | 65 | 97 | 1.0 | 7.0 | 0.00 | 0.00 | 0.00 | 67 | 1022.8 |
| 20260509061543 | 65 | 132 | 1.0 | 4.0 | 0.00 | 0.00 | 0.00 | 67 | 1022.8 |
| 20260509061039 | 66 | 44 | 1.0 | 6.0 | 0.00 | 0.00 | 0.00 | 66 | 1022.7 |
| 20260509060539 | 66 | 128 | 1.0 | 6.0 | 0.00 | 0.00 | 0.00 | 65 | 1022.7 |
| 20260509060040 | 66 | 107 | 0.0 | 8.0 | 0.00 | 0.00 | 0.00 | 66 | 1022.7 |
| 20260509055539 | 66 | 120 | 1.0 | 8.0 | 0.00 | 0.00 | 0.00 | 65 | 1022.6 |
| 20260509055041 | 66 | 103 | 2.0 | 7.0 | 0.00 | 0.00 | 0.00 | 65 | 1022.5 |
| 20260509054556 | 66 | 144 | 1.0 | 7.0 | 0.00 | 0.00 | 0.00 | 65 | 1022.5 |
| 20260509054037 | 66 | 81 | 1.0 | 9.0 | 0.00 | 0.00 | 0.00 | 63 | 1022.5 |
| 20260509053538 | 66 | 71 | 2.0 | 9.0 | 0.00 | 0.00 | 0.00 | 62 | 1022.5 |
| 20260509053038 | 66 | 82 | 3.0 | 8.0 | 0.00 | 0.00 | 0.00 | 63 | 1022.4 |
| 20260509052538 | 66 | 94 | 2.0 | 7.0 | 0.00 | 0.00 | 0.00 | 62 | 1022.4 |
| 20260509052037 | 67 | 89 | 1.0 | 10.0 | 0.00 | 0.00 | 0.00 | 63 | 1022.4 |
| 20260509051539 | 67 | 154 | 3.0 | 10.0 | 0.00 | 0.00 | 0.00 | 61 | 1022.4 |
| 20260509051042 | 67 | 37 | 2.0 | 7.0 | 0.00 | 0.00 | 0.00 | 62 | 1022.4 |
| 20260509050538 | 67 | 65 | 2.0 | 9.0 | 0.00 | 0.00 | 0.00 | 61 | 1022.3 |
| 20260509050047 | 67 | 59 | 3.0 | 9.0 | 0.00 | 0.00 | 0.00 | 61 | 1022.3 |
| 20260509045536 | 67 | 99 | 3.0 | 10.0 | 0.00 | 0.00 | 0.00 | 61 | 1022.4 |
| 20260509045037 | 67 | 99 | 3.0 | 10.0 | 0.00 | 0.00 | 0.00 | 60 | 1022.4 |
| 20260509044535 | 67 | 93 | 2.0 | 9.0 | 0.00 | 0.00 | 0.00 | 61 | 1022.4 |
| 20260509044036 | 67 | 91 | 2.0 | 9.0 | 0.00 | 0.00 | 0.00 | 61 | 1022.3 |
| 20260509043536 | 67 | 84 | 1.0 | 9.0 | 0.00 | 0.00 | 0.00 | 60 | 1022.3 |
| 20260509043037 | 68 | 86 | 3.0 | 7.0 | 0.00 | 0.00 | 0.00 | 60 | 1022.3 |
| 20260509042535 | 67 | 82 | 2.0 | 8.0 | 0.00 | 0.00 | 0.00 | 60 | 1022.2 |
| 20260509042038 | 67 | 86 | 3.0 | 8.0 | 0.00 | 0.00 | 0.00 | 60 | 1022.2 |
| 20260509041535 | 67 | 74 | 3.0 | 8.0 | 0.00 | 0.00 | 0.00 | 59 | 1022.2 |
| 20260509041035 | 68 | 96 | 2.0 | 7.0 | 0.00 | 0.00 | 0.00 | 59 | 1022.2 |
| 20260509040536 | 68 | 87 | 2.0 | 7.0 | 0.00 | 0.00 | 0.00 | 59 | 1022.2 |
| 20260509040034 | 68 | 66 | 2.0 | 5.0 | 0.00 | 0.00 | 0.00 | 60 | 1022.2 |
| 20260509035534 | 68 | 132 | 2.0 | 9.0 | 0.00 | 0.00 | 0.00 | 60 | 1022.2 |
| 20260509035036 | 68 | 82 | 3.0 | 11.0 | 0.00 | 0.00 | 0.00 | 59 | 1022.3 |
| 20260509034533 | 68 | 107 | 2.0 | 11.0 | 0.00 | 0.00 | 0.00 | 59 | 1022.2 |
| 20260509034033 | 68 | 76 | 2.0 | 7.0 | 0.00 | 0.00 | 0.00 | 59 | 1022.2 |
| 20260509033535 | 68 | 65 | 2.0 | 9.0 | 0.00 | 0.00 | 0.00 | 58 | 1022.3 |
| 20260509033032 | 69 | 63 | 3.0 | 9.0 | 0.00 | 0.00 | 0.00 | 56 | 1022.3 |
| 20260509032533 | 69 | 80 | 2.0 | 8.0 | 0.00 | 0.00 | 0.00 | 55 | 1022.3 |
| 20260509032032 | 69 | 88 | 1.0 | 10.0 | 0.00 | 0.00 | 0.00 | 56 | 1022.4 |
| 20260509031535 | 69 | 88 | 1.0 | 8.0 | 0.00 | 0.00 | 0.00 | 55 | 1022.4 |
| 20260509031032 | 69 | 124 | 2.0 | 6.0 | 0.00 | 0.00 | 0.00 | 55 | 1022.4 |
| 20260509030531 | 69 | 86 | 2.0 | 7.0 | 0.00 | 0.00 | 0.00 | 55 | 1022.4 |
| 20260509030037 | 70 | 40 | 2.0 | 6.0 | 0.00 | 0.00 | 0.00 | 52 | 1022.6 |
| 20260509025630 | 70 | 146 | 2.0 | 6.0 | 0.00 | 0.00 | 0.00 | 52 | 1022.6 |
| 20260509025030 | 69 | 92 | 2.0 | 6.0 | 0.00 | 0.00 | 0.00 | 50 | 1022.6 |
| 20260509024536 | 69 | 178 | 1.0 | 4.0 | 0.00 | 0.00 | 0.00 | 52 | 1022.7 |
| 20260509024027 | 69 | 99 | 1.0 | 7.0 | 0.00 | 0.00 | 0.00 | 53 | 1022.7 |
| 20260509023527 | 69 | 76 | 2.0 | 7.0 | 0.00 | 0.00 | 0.00 | 53 | 1022.8 |
| 20260509023026 | 69 | 146 | 2.0 | 7.0 | 0.00 | 0.00 | 0.00 | 51 | 1022.9 |
| 20260509022525 | 69 | 127 | 1.0 | 7.0 | 0.00 | 0.00 | 0.00 | 52 | 1023.0 |
| 20260509022024 | 69 | 137 | 2.0 | 8.0 | 0.00 | 0.00 | 0.00 | 52 | 1023.0 |
| 20260509021523 | 69 | 107 | 2.0 | 8.0 | 0.00 | 0.00 | 0.00 | 53 | 1023.1 |
| 20260509021022 | 68 | 144 | 1.0 | 7.0 | 0.00 | 0.00 | 0.00 | 53 | 1023.2 |
| 20260509020521 | 68 | 103 | 2.0 | 7.0 | 0.00 | 0.00 | 0.00 | 53 | 1023.2 |
| 20260509020020 | 68 | 217 | 2.0 | 6.0 | 0.00 | 0.00 | 0.00 | 53 | 1023.3 |
| 20260509015519 | 68 | 218 | 1.0 | 7.0 | 0.00 | 0.00 | 0.00 | 54 | 1023.3 |
| 20260509015018 | 67 | 157 | 3.0 | 7.0 | 0.00 | 0.00 | 0.00 | 55 | 1023.4 |
| 20260509014518 | 67 | 257 | 2.0 | 7.0 | 0.00 | 0.00 | 0.00 | 56 | 1023.4 |
| 20260509014016 | 67 | 185 | 3.0 | 8.0 | 0.00 | 0.00 | 0.00 | 55 | 1023.5 |
| 20260509013516 | 67 | 199 | 4.0 | 8.0 | 0.00 | 0.00 | 0.00 | 55 | 1023.6 |
| 20260509013023 | 67 | 182 | 2.0 | 7.0 | 0.00 | 0.00 | 0.00 | 56 | 1023.6 |
| 20260509012515 | 67 | 153 | 1.0 | 9.0 | 0.00 | 0.00 | 0.00 | 56 | 1023.7 |
| 20260509012013 | 66 | 215 | 3.0 | 9.0 | 0.00 | 0.00 | 0.00 | 55 | 1023.7 |
| 20260509011513 | 67 | 177 | 3.0 | 9.0 | 0.00 | 0.00 | 0.00 | 56 | 1023.8 |
| 20260509011016 | 66 | 123 | 2.0 | 9.0 | 0.00 | 0.00 | 0.00 | 57 | 1023.7 |
| 20260509010509 | 66 | 192 | 3.0 | 8.0 | 0.00 | 0.00 | 0.00 | 57 | 1023.8 |
| 20260509010014 | 66 | 145 | 2.0 | 7.0 | 0.00 | 0.00 | 0.00 | 58 | 1023.8 |
| 20260509005509 | 66 | 143 | 2.0 | 7.0 | 0.00 | 0.00 | 0.00 | 57 | 1024.0 |
| 20260509005006 | 66 | 165 | 2.0 | 7.0 | 0.00 | 0.00 | 0.00 | 58 | 1024.0 |